Time,TemperatureF,DewpointF,PressureIn,WindDirection,WindDirectionDegrees,WindSpeedMPH,WindSpeedGustMPH,Humidity,HourlyPrecipIn,Conditions,Clouds,dailyrainin,SolarRadiationWatts/m^2,SoftwareType,DateUTC
2013-09-07 00:05:00,69.4,57.1,29.93,WNW,288,1.0,2.0,65,0.00,,,0.00,0,Wunderground v.1.15,2013-09-06 22:05:00,
2013-09-07 00:15:00,69.3,57.5,29.92,WNW,288,1.0,1.0,66,0.00,,,0.00,0,Wunderground v.1.15,2013-09-06 22:15:00,
2013-09-07 00:26:00,68.9,57.5,29.92,WNW,288,1.0,2.0,67,0.00,,,0.00,0,Wunderground v.1.15,2013-09-06 22:26:00,
2013-09-07 00:40:00,68.9,57.9,29.92,WNW,289,1.0,1.0,68,0.00,,,0.00,0,Wunderground v.1.15,2013-09-06 22:40:00,
2013-09-07 00:50:00,68.9,57.5,29.92,WNW,302,3.0,3.0,67,0.00,,,0.00,0,Wunderground v.1.15,2013-09-06 22:50:00,
2013-09-07 00:55:00,69.0,57.6,29.92,NW,306,3.0,3.0,67,0.00,,,0.00,0,Wunderground v.1.15,2013-09-06 22:55:00,
2013-09-07 01:05:00,69.1,57.7,29.92,WNW,301,3.0,3.0,67,0.00,,,0.00,0,Wunderground v.1.15,2013-09-06 23:05:00,
2013-09-07 01:10:00,69.0,57.6,29.92,WNW,300,3.0,3.0,67,0.00,,,0.00,0,Wunderground v.1.15,2013-09-06 23:10:00,
2013-09-07 01:21:00,69.0,58.0,29.92,WNW,294,2.0,3.0,68,0.00,,,0.00,0,Wunderground v.1.15,2013-09-06 23:21:00,
2013-09-07 01:30:00,68.9,57.9,29.92,WNW,301,2.0,3.0,68,0.00,,,0.00,0,Wunderground v.1.15,2013-09-06 23:30:00,
2013-09-07 01:36:00,68.9,57.9,29.92,WNW,298,2.0,4.0,68,0.00,,,0.00,0,Wunderground v.1.15,2013-09-06 23:36:00,
2013-09-07 01:45:00,68.8,57.4,29.92,WNW,294,3.0,4.0,67,0.00,,,0.00,0,Wunderground v.1.15,2013-09-06 23:45:00,
2013-09-07 01:51:00,68.8,57.8,29.92,WNW,294,2.0,2.0,68,0.00,,,0.00,0,Wunderground v.1.15,2013-09-06 23:51:00,
2013-09-07 02:06:00,68.4,57.4,29.93,WNW,294,2.0,2.0,68,0.00,,,0.00,0,Wunderground v.1.15,2013-09-07 00:06:00,
2013-09-07 02:20:00,68.4,57.4,29.92,WNW,295,2.0,2.0,68,0.00,,,0.00,0,Wunderground v.1.15,2013-09-07 00:20:00,
2013-09-07 02:30:00,68.4,57.8,29.93,WNW,295,1.0,1.0,69,0.00,,,0.00,0,Wunderground v.1.15,2013-09-07 00:30:00,
2013-09-07 02:45:00,68.2,57.6,29.93,WNW,296,1.0,1.0,69,0.00,,,0.00,0,Wunderground v.1.15,2013-09-07 00:45:00,
2013-09-07 02:55:00,68.2,58.0,29.92,WNW,295,1.0,1.0,70,0.00,,,0.00,0,Wunderground v.1.15,2013-09-07 00:55:00,
2013-09-07 03:10:00,68.3,58.5,29.92,WNW,296,0.0,0.0,71,0.00,,,0.00,0,Wunderground v.1.15,2013-09-07 01:10:00,
2013-09-07 03:25:00,68.2,58.4,29.92,WNW,295,1.0,1.0,71,0.00,,,0.00,0,Wunderground v.1.15,2013-09-07 01:25:00,
2013-09-07 03:36:00,68.2,58.8,29.93,WNW,296,2.0,2.0,72,0.00,,,0.00,0,Wunderground v.1.15,2013-09-07 01:36:00,
2013-09-07 03:45:00,68.3,59.3,29.93,WNW,296,1.0,2.0,73,0.00,,,0.00,0,Wunderground v.1.15,2013-09-07 01:45:00,
2013-09-07 03:51:00,68.3,59.3,29.93,WNW,295,0.0,0.0,73,0.00,,,0.00,0,Wunderground v.1.15,2013-09-07 01:51:00,
2013-09-07 04:05:00,68.3,59.3,29.92,WNW,296,0.0,0.0,73,0.00,,,0.00,0,Wunderground v.1.15,2013-09-07 02:05:00,
2013-09-07 04:15:00,68.4,59.8,29.92,WNW,295,1.0,1.0,74,0.00,,,0.00,0,Wunderground v.1.15,2013-09-07 02:15:00,
2013-09-07 04:26:00,68.4,60.5,29.92,WNW,296,1.0,1.0,76,0.00,,,0.00,0,Wunderground v.1.15,2013-09-07 02:26:00,
2013-09-07 04:40:00,68.2,60.7,29.93,West,275,1.0,5.0,77,0.00,,,0.00,0,Wunderground v.1.15,2013-09-07 02:40:00,
2013-09-07 04:50:00,68.3,61.5,29.92,WNW,285,2.0,2.0,79,0.00,,,0.00,0,Wunderground v.1.15,2013-09-07 02:50:00,
2013-09-07 05:05:00,67.5,60.0,29.93,WNW,288,0.0,0.0,77,0.00,,,0.00,0,Wunderground v.1.15,2013-09-07 03:05:00,
2013-09-07 05:15:00,67.1,59.6,29.93,WNW,288,0.0,1.0,77,0.00,,,0.00,0,Wunderground v.1.15,2013-09-07 03:15:00,
2013-09-07 05:25:00,67.5,61.1,29.93,West,278,2.0,2.0,80,0.00,,,0.00,0,Wunderground v.1.15,2013-09-07 03:25:00,
2013-09-07 05:36:00,67.4,61.0,29.93,West,271,1.0,1.0,80,0.00,,,0.00,0,Wunderground v.1.15,2013-09-07 03:36:00,
2013-09-07 05:51:00,67.5,61.5,29.94,West,271,0.0,0.0,81,0.00,,,0.00,0,Wunderground v.1.15,2013-09-07 03:51:00,
2013-09-07 06:10:00,66.9,60.5,29.95,West,272,0.0,0.0,80,0.00,,,0.00,0,Wunderground v.1.15,2013-09-07 04:10:00,
2013-09-07 06:15:00,66.9,60.5,29.95,West,272,0.0,0.0,80,0.00,,,0.00,0,Wunderground v.1.15,2013-09-07 04:15:00,
2013-09-07 06:20:00,66.8,60.4,29.95,West,272,0.0,0.0,80,0.00,,,0.00,0,Wunderground v.1.15,2013-09-07 04:20:00,
2013-09-07 06:35:00,67.1,61.1,29.95,West,271,1.0,1.0,81,0.00,,,0.00,0,Wunderground v.1.15,2013-09-07 04:35:00,
2013-09-07 06:50:00,66.8,60.8,29.95,West,272,0.0,0.0,81,0.00,,,0.00,0,Wunderground v.1.15,2013-09-07 04:50:00,
2013-09-07 07:05:00,66.4,60.4,29.94,West,272,0.0,1.0,81,0.00,,,0.00,0,Wunderground v.1.15,2013-09-07 05:05:00,
2013-09-07 07:15:00,66.5,60.8,29.95,West,272,0.0,0.0,82,0.00,,,0.00,9,Wunderground v.1.15,2013-09-07 05:15:00,
2013-09-07 07:20:00,66.6,61.3,29.96,West,272,1.0,3.0,83,0.00,,,0.00,11,Wunderground v.1.15,2013-09-07 05:20:00,
2013-09-07 07:25:00,66.8,61.5,29.96,West,277,2.0,2.0,83,0.00,,,0.00,11,Wunderground v.1.15,2013-09-07 05:25:00,
2013-09-07 07:36:00,67.0,62.0,29.97,West,280,2.0,4.0,84,0.00,,,0.00,23,Wunderground v.1.15,2013-09-07 05:36:00,
2013-09-07 07:50:00,66.9,61.6,29.97,WNW,292,1.0,1.0,83,0.00,,,0.00,67,Wunderground v.1.15,2013-09-07 05:50:00,
2013-09-07 08:05:00,66.9,61.9,29.97,WNW,292,0.0,0.0,84,0.00,,,0.00,113,Wunderground v.1.15,2013-09-07 06:05:00,
2013-09-07 08:15:00,67.4,62.4,29.97,WNW,292,0.0,0.0,84,0.00,,,0.00,74,Wunderground v.1.15,2013-09-07 06:15:00,
2013-09-07 08:25:00,68.0,63.0,29.97,WNW,292,0.0,0.0,84,0.00,,,0.00,134,Wunderground v.1.15,2013-09-07 06:25:00,
2013-09-07 08:35:00,68.6,63.6,29.96,WNW,292,0.0,0.0,84,0.00,,,0.00,179,Wunderground v.1.15,2013-09-07 06:35:00,
2013-09-07 08:45:00,69.3,64.3,29.97,WNW,292,0.0,0.0,84,0.00,,,0.00,200,Wunderground v.1.15,2013-09-07 06:45:00,
2013-09-07 08:56:00,70.3,64.9,29.96,WNW,292,0.0,0.0,83,0.00,,,0.00,251,Wunderground v.1.15,2013-09-07 06:56:00,
2013-09-07 09:05:00,71.5,65.7,29.95,WNW,292,0.0,2.0,82,0.00,,,0.00,287,Wunderground v.1.15,2013-09-07 07:05:00,
2013-09-07 09:10:00,72.1,65.6,29.95,NNW,334,1.0,2.0,80,0.00,,,0.00,323,Wunderground v.1.15,2013-09-07 07:10:00,
2013-09-07 09:15:00,72.8,65.9,29.94,NNW,334,1.0,1.0,79,0.00,,,0.00,339,Wunderground v.1.15,2013-09-07 07:15:00,
2013-09-07 09:20:00,73.4,66.1,29.94,NNW,335,1.0,1.0,78,0.00,,,0.00,348,Wunderground v.1.15,2013-09-07 07:20:00,
2013-09-07 09:31:00,74.7,66.6,29.94,NNW,335,1.0,1.0,76,0.00,,,0.00,172,Wunderground v.1.15,2013-09-07 07:31:00,
2013-09-07 09:41:00,75.9,67.4,29.94,NNW,335,0.0,1.0,75,0.00,,,0.00,450,Wunderground v.1.15,2013-09-07 07:41:00,
2013-09-07 09:55:00,77.4,66.4,29.96,ESE,105,2.0,2.0,69,0.00,,,0.00,211,Wunderground v.1.15,2013-09-07 07:55:00,
2013-09-07 10:06:00,77.8,66.4,29.96,ESE,105,1.0,1.0,68,0.00,,,0.00,494,Wunderground v.1.15,2013-09-07 08:06:00,
2013-09-07 10:20:00,79.0,66.2,29.95,SE,136,2.0,2.0,65,0.00,,,0.00,276,Wunderground v.1.15,2013-09-07 08:20:00,
2013-09-07 10:30:00,79.1,65.9,29.95,ESE,107,1.0,1.0,64,0.00,,,0.00,508,Wunderground v.1.15,2013-09-07 08:30:00,
2013-09-07 10:40:00,79.3,65.1,29.96,ENE,78,2.0,2.0,62,0.00,,,0.00,649,Wunderground v.1.15,2013-09-07 08:40:00,
2013-09-07 10:51:00,80.0,65.8,29.97,ESE,113,1.0,2.0,62,0.00,,,0.00,782,Wunderground v.1.15,2013-09-07 08:51:00,
2013-09-07 11:10:00,80.0,65.3,29.98,ESE,121,2.0,4.0,61,0.00,,,0.00,369,Wunderground v.1.15,2013-09-07 09:10:00,
2013-09-07 11:20:00,79.3,65.1,29.98,East,86,3.0,3.0,62,0.00,,,0.00,392,Wunderground v.1.15,2013-09-07 09:20:00,
2013-09-07 11:30:00,79.0,65.3,29.99,SE,125,2.0,2.0,63,0.00,,,0.00,360,Wunderground v.1.15,2013-09-07 09:30:00,
2013-09-07 11:40:00,78.8,65.6,29.99,SE,138,1.0,1.0,64,0.00,,,0.00,304,Wunderground v.1.15,2013-09-07 09:40:00,
2013-09-07 11:55:00,79.4,66.6,29.99,SSW,207,1.0,1.0,65,0.00,,,0.00,939,Wunderground v.1.15,2013-09-07 09:55:00,
2013-09-07 12:05:00,80.5,66.3,29.99,SSW,207,1.0,3.0,62,0.00,,,0.00,264,Wunderground v.1.15,2013-09-07 10:05:00,
2013-09-07 12:15:00,80.5,65.8,29.99,SW,229,3.0,5.0,61,0.00,,,0.00,260,Wunderground v.1.15,2013-09-07 10:15:00,
2013-09-07 12:30:00,79.9,65.7,29.99,WSW,249,3.0,9.0,62,0.00,,,0.00,323,Wunderground v.1.15,2013-09-07 10:30:00,
2013-09-07 12:40:00,79.6,66.3,30.00,SSW,192,5.0,6.0,64,0.00,,,0.00,343,Wunderground v.1.15,2013-09-07 10:40:00,
2013-09-07 12:55:00,79.8,66.5,29.99,West,261,3.0,4.0,64,0.00,,,0.00,276,Wunderground v.1.15,2013-09-07 10:55:00,
2013-09-07 13:05:00,79.2,66.0,29.99,WSW,242,4.0,4.0,64,0.00,,,0.00,279,Wunderground v.1.15,2013-09-07 11:05:00,
2013-09-07 13:16:00,79.1,65.9,29.99,West,261,3.0,8.0,64,0.00,,,0.00,265,Wunderground v.1.15,2013-09-07 11:16:00,
2013-09-07 13:30:00,78.8,66.0,29.98,WSW,248,3.0,4.0,65,0.00,,,0.00,237,Wunderground v.1.15,2013-09-07 11:30:00,
2013-09-07 14:15:00,79.7,66.0,29.96,South,188,3.0,3.0,63,0.00,,,0.00,360,Wunderground v.1.15,2013-09-07 12:15:00,
2013-09-07 14:20:00,79.8,66.1,29.96,SSW,201,3.0,3.0,63,0.00,,,0.00,341,Wunderground v.1.15,2013-09-07 12:20:00,
2013-09-07 14:35:00,80.2,66.5,29.96,SSW,203,3.0,4.0,63,0.00,,,0.00,325,Wunderground v.1.15,2013-09-07 12:35:00,
2013-09-07 14:45:00,80.4,65.7,29.96,SSE,163,3.0,3.0,61,0.00,,,0.00,294,Wunderground v.1.15,2013-09-07 12:45:00,
2013-09-07 15:05:00,81.0,66.3,29.98,SSE,160,5.0,5.0,61,0.00,,,0.00,357,Wunderground v.1.15,2013-09-07 13:05:00,
2013-09-07 15:15:00,81.1,65.9,29.98,SW,221,6.0,8.0,60,0.00,,,0.00,842,Wunderground v.1.15,2013-09-07 13:15:00,
2013-09-07 15:25:00,81.7,66.9,29.99,SSE,160,6.0,8.0,61,0.00,,,0.00,824,Wunderground v.1.15,2013-09-07 13:25:00,
2013-09-07 15:40:00,80.3,66.6,29.99,SW,230,7.0,7.0,63,0.00,,,0.00,904,Wunderground v.1.15,2013-09-07 13:40:00,
2013-09-07 15:50:00,80.5,67.2,29.99,SSE,165,8.0,8.0,64,0.00,,,0.00,742,Wunderground v.1.15,2013-09-07 13:50:00,
2013-09-07 16:06:00,79.8,66.1,29.98,SW,215,6.0,6.0,63,0.00,,,0.00,728,Wunderground v.1.15,2013-09-07 14:06:00,
2013-09-07 16:15:00,79.6,66.3,29.98,South,182,6.0,7.0,64,0.00,,,0.00,269,Wunderground v.1.15,2013-09-07 14:15:00,
2013-09-07 16:30:00,79.2,66.4,29.98,SSW,213,6.0,7.0,65,0.00,,,0.00,185,Wunderground v.1.15,2013-09-07 14:30:00,
2013-09-07 16:50:00,77.8,66.4,29.98,SSW,211,5.0,7.0,68,0.00,,,0.00,257,Wunderground v.1.15,2013-09-07 14:50:00,
2013-09-07 16:55:00,77.7,66.7,29.98,SSW,211,5.0,5.0,69,0.00,,,0.00,229,Wunderground v.1.15,2013-09-07 14:55:00,
2013-09-07 17:10:00,77.6,67.4,29.98,SSW,194,3.0,3.0,71,0.00,,,0.00,98,Wunderground v.1.15,2013-09-07 15:10:00,
2013-09-07 17:25:00,77.2,67.5,29.98,SSE,168,4.0,4.0,72,0.00,,,0.00,137,Wunderground v.1.15,2013-09-07 15:25:00,
2013-09-07 17:35:00,76.9,67.2,29.98,South,172,5.0,5.0,72,0.00,,,0.00,44,Wunderground v.1.15,2013-09-07 15:35:00,
2013-09-07 17:50:00,76.2,67.3,29.98,SSW,200,5.0,5.0,74,0.00,,,0.00,67,Wunderground v.1.15,2013-09-07 15:50:00,
2013-09-07 18:05:00,75.9,67.8,29.97,SW,227,4.0,4.0,76,0.00,,,0.00,113,Wunderground v.1.15,2013-09-07 16:05:00,
2013-09-07 18:20:00,75.9,67.8,29.97,SSW,202,3.0,8.0,76,0.00,,,0.00,104,Wunderground v.1.15,2013-09-07 16:20:00,
2013-09-07 18:30:00,75.7,67.6,29.95,SE,132,3.0,3.0,76,0.00,,,0.00,84,Wunderground v.1.15,2013-09-07 16:30:00,
2013-09-07 18:45:00,75.3,66.8,29.95,SSW,213,2.0,3.0,75,0.00,,,0.00,67,Wunderground v.1.15,2013-09-07 16:45:00,
2013-09-07 18:55:00,75.1,66.6,29.95,SSW,213,1.0,1.0,75,0.00,,,0.00,79,Wunderground v.1.15,2013-09-07 16:55:00,
2013-09-07 19:10:00,75.3,66.4,29.95,SW,215,1.0,1.0,74,0.00,,,0.00,47,Wunderground v.1.15,2013-09-07 17:10:00,
2013-09-07 19:20:00,75.3,66.4,29.95,SW,215,1.0,1.0,74,0.00,,,0.00,30,Wunderground v.1.15,2013-09-07 17:20:00,
2013-09-07 19:40:00,75.2,65.9,29.96,SW,214,2.0,2.0,73,0.00,,,0.00,14,Wunderground v.1.15,2013-09-07 17:40:00,
2013-09-07 19:55:00,74.8,64.8,29.95,SW,215,1.0,2.0,71,0.00,,,0.00,7,Wunderground v.1.15,2013-09-07 17:55:00,
2013-09-07 20:10:00,74.5,64.1,29.96,SW,214,0.0,0.0,70,0.00,,,0.00,0,Wunderground v.1.15,2013-09-07 18:10:00,
2013-09-07 20:25:00,74.6,64.2,29.96,SW,214,0.0,1.0,70,0.00,,,0.00,0,Wunderground v.1.15,2013-09-07 18:25:00,
2013-09-07 20:35:00,74.4,64.8,29.97,SW,214,2.0,2.0,72,0.00,,,0.00,0,Wunderground v.1.15,2013-09-07 18:35:00,
2013-09-07 20:50:00,73.3,63.7,29.97,SW,221,2.0,2.0,72,0.00,,,0.00,0,Wunderground v.1.15,2013-09-07 18:50:00,
2013-09-07 21:05:00,73.0,63.4,29.97,WNW,291,3.0,3.0,72,0.00,,,0.00,0,Wunderground v.1.15,2013-09-07 19:05:00,
2013-09-07 21:20:00,72.9,62.9,29.98,WNW,288,1.0,1.0,71,0.00,,,0.00,0,Wunderground v.1.15,2013-09-07 19:20:00,
2013-09-07 21:35:00,72.9,62.9,29.98,WNW,288,1.0,2.0,71,0.00,,,0.00,0,Wunderground v.1.15,2013-09-07 19:35:00,
2013-09-07 21:45:00,72.9,62.9,29.98,WNW,288,1.0,1.0,71,0.00,,,0.00,0,Wunderground v.1.15,2013-09-07 19:45:00,
2013-09-07 21:56:00,72.8,62.8,30.00,WNW,288,1.0,1.0,71,0.00,,,0.00,0,Wunderground v.1.15,2013-09-07 19:56:00,
2013-09-07 22:05:00,72.8,63.2,30.00,WNW,288,2.0,3.0,72,0.00,,,0.00,0,Wunderground v.1.15,2013-09-07 20:05:00,
2013-09-07 22:10:00,72.7,63.5,30.01,WNW,288,2.0,3.0,73,0.00,,,0.00,0,Wunderground v.1.15,2013-09-07 20:10:00,
2013-09-07 22:25:00,72.6,63.4,30.01,WNW,284,2.0,2.0,73,0.00,,,0.00,0,Wunderground v.1.15,2013-09-07 20:25:00,
2013-09-07 22:35:00,72.7,63.9,30.02,WNW,284,1.0,1.0,74,0.00,,,0.00,0,Wunderground v.1.15,2013-09-07 20:35:00,
2013-09-07 22:45:00,72.9,64.5,30.02,WNW,288,1.0,3.0,75,0.00,,,0.00,0,Wunderground v.1.15,2013-09-07 20:45:00,
2013-09-07 22:50:00,73.0,64.6,30.03,West,277,3.0,3.0,75,0.00,,,0.00,0,Wunderground v.1.15,2013-09-07 20:50:00,
2013-09-07 23:05:00,73.4,65.7,30.02,West,272,1.0,1.0,77,0.00,,,0.00,0,Wunderground v.1.15,2013-09-07 21:05:00,
2013-09-07 23:15:00,73.4,66.1,30.04,West,264,1.0,1.0,78,0.00,,,0.00,0,Wunderground v.1.15,2013-09-07 21:15:00,
2013-09-07 23:30:00,73.5,66.6,30.04,WSW,257,2.0,2.0,79,0.00,,,0.00,0,Wunderground v.1.15,2013-09-07 21:30:00,
2013-09-07 23:40:00,73.6,67.0,30.05,WSW,257,1.0,1.0,80,0.00,,,0.00,0,Wunderground v.1.15,2013-09-07 21:40:00,
2013-09-07 23:51:00,73.6,67.0,30.05,WSW,251,2.0,2.0,80,0.00,,,0.00,0,Wunderground v.1.15,2013-09-07 21:51:00,